CZ-6A DEB, 61362

Orbit data source: Space-Track

CZ-6A DEB, 61362 is space debris in LEO originally from a launch on Tue, 06 Aug 2024 UTC launched from the Taiyaun Space Center, China (TSC). Debris objects in space refer to the collection of defunct objects orbiting the Earth. Examples of debris include non-operational satellites, rocket bodies, and fragments generated from explosions, collisions, or faulty payload assembly.

Loading next visibility...
Identifier
61362, 2024-140WB
Orbit
LEO
Country
Flag of CNCN / PRC
Related business
Manufacturer
SAST
Mission
Spacecraft
Bus & Motor
Unknown
Mass
Unknown
Launch date (UTC)
2024-08-06 (2 years ago)
Launch vehicle
Unknown
Launch site
Taiyaun Space Center, China (TSC)
Object type
Payload
Rocket body
Debris
Shape & HBR
Unknown shape, 0.1 m
Radar Cross Section
Medium (>0.1 m² and <1 m²)

Expand to show TLE details & history
Last TLE update: 17 hours ago

TLE from 17 hours ago
0 CZ-6A DEB
1 61362U 24140WB  26171.27336421  .00000565  00000-0  28382-3 0  9996
2 61362  89.1192 284.5226 0074416 191.8886 168.0547 14.13811811 92485
Epoch: 2026-06-20T06:33Z
TLE epoch observation values (Epoch: 2026-06-20T06:33:38.667Z)
Latitude
-0.00008°
Longitude
-82.37887°
Altitude
902.027 km
Speed
7.374 km/s
True Right ascension
18h 58m 05s
True Declination
0° 00' 00"
Sunlit
Object was in full shadow at epoch
Visualization orbit readout
Latitude
Unknown
Longitude
Unknown
Altitude
Unknown
Speed
Unknown
Apparent Right ascension
Unknown
Apparent Declination
Unknown
Sunlit
N/A
Visualization observer readout
Local Sidereal Time
10:18:03
Azimuth
Unknown
Elevation
Unknown
Doppler factor
Unknown
Orbital elements
Apogee altitude
897.055 km
Perigee altitude
789.577 km
Semi-major axis
7,221.453 km
Eccentricity
0.00744
Inclination
89.1192°
RAAN
284.5226°
Arg. of periapsis
191.8886°
True anomaly
168.22961°
Mean anomaly
168.0547°
Eccentric anomaly
168.14231°
Mean motion
3.53677 °/min
Orbital period
101.79 mins
BSTAR
0.00028382
Loading maneuver chart data...
Computing Atmospheric mass density...
Loading historical data...
Loading historical data...
Loading historical data...
Loading historical data...
Loading historical data...
Loading historical data...
Loading historical data...

Documentation

Showing up to 5 results
|